Simultaneous Nadir Overpasses (SNOs) Predictions

Prediction of SNOs between NOAA-19 and TERRA Satellite Orbit:

Table of predicted SNOs for the next 14.0 days since TLE Epoch: 11/9/2024
Index Date (NOAA-19) Time (NOAA-19) Lat,Lon (NOAA-19) SZA (NOAA-19 ) Date (TERRA) Time (TERRA) Lat,Lon (TERRA) SZA (TERRA ) Distance(km) Time Diff (sec)
1 11/11/2024 03:22:34 -56.31, -74.33 104.47 11/11/2024 03:23:32 -56.32, -74.29 104.52 2.38 58
2 11/11/2024 04:11:50 62.18, 97.08 80.59 11/11/2024 04:11:10 62.18, 97.07 80.60 0.60 40
3 11/13/2024 06:22:21 -52.27,-121.15 107.31 11/13/2024 06:23:34 -52.27,-121.04 107.40 7.64 73
4 11/13/2024 07:10:59 60.33, 51.02 79.55 11/13/2024 07:10:35 60.34, 51.02 79.56 0.31 24
5 11/15/2024 10:10:14 58.11, 4.86 78.18 11/15/2024 10:10:05 58.12, 4.88 78.19 1.52 9
6 11/17/2024 13:09:17 56.52, -40.74 77.35 11/17/2024 13:09:23 56.51, -40.77 77.34 1.76 6
7 11/17/2024 13:52:32 -79.52, 173.30 80.41 11/17/2024 13:51:19 -80.21, 170.90 79.95 90.01 73
8 11/19/2024 16:08:40 53.77, -86.91 75.52 11/19/2024 16:08:59 53.77, -86.91 75.50 0.21 19
9 11/19/2024 16:57:46 -59.93, 84.20 99.22 11/19/2024 16:56:36 -59.92, 84.17 99.19 2.38 70
10 11/21/2024 19:07:52 51.60,-132.62 74.17 11/21/2024 19:08:24 51.59,-132.64 74.14 2.28 32



Historial Predications of SNOs between NOAA-19 and TERRA
